X

Important NEWS



New Hub Active

Miami is our new hub! Old members can request transfer via hr@dlxairways.net

Thank you very much and have nice flight.


Deluxe Airways.

X

Tours



Hello again, we created one nice test tour for all pilots to attend. also this is ment to be testing of our tour system

Available Tours

If you find some issues please inform us.

Thank you very much and have nice flight.


Deluxe Airways.

 METAR AND TAF INFORMATION
ArrayMETAR FOR KMSY
114527275 6 KMSY 140153Z 34011G18KT 10SM OVC012 07/05 A3029 RMK AO2 SLP258 T00670050 KMSY 2018-11-14T01:53:00Z 30.0 -90.25 6.7 5.0 340 11 18 10.0 30.28937 1025.8 TRUE MVFR METAR 5.0 KMSY 140053Z 34013G20KT 9SM OVC010 07/05 A3027 RMK AO2 CIG 008V015 SLP253 T00670050 KMSY 2018-11-14T00:53:00Z 30.0 -90.25 6.7 5.0 340 13 20 9.0 30.268702 1025.3 TRUE MVFR METAR 5.0

 AIRPORT MAP

 RUNWAY INFORMATION
Runway 01 Runway length 7001 ft Runway width 150 ft
Runway elevation 3 ft Runway displaced threshold 0 ft Runway heading 15
Runway 19 Runway length 7001 ft Runway width 150 ft
Runway elevation 0 ft Runway displaced threshold 0 ft Runway heading 195
Runway 06 Runway length 3570 ft Runway width 150 ft
Runway elevation 2 ft Runway displaced threshold 0 ft Runway heading 60
Runway 24 Runway length 3570 ft Runway width 150 ft
Runway elevation 1 ft Runway displaced threshold 0 ft Runway heading 240
Runway 10 Runway length 10104 ft Runway width 150 ft
Runway elevation 4 ft Runway displaced threshold 0 ft Runway heading 106
Runway 28 Runway length 10104 ft Runway width 150 ft
Runway elevation 2 ft Runway displaced threshold 304 ft Runway heading 286

 AIRPORT FREQUENCIES
Type A/D Name NEW ORLEAN Frequency 123.85 MHZ
Type ATIS Name ATIS Frequency 127.55 MHZ
Type CLD Name CLNC DEL Frequency 127.2 MHZ
Type GND Name GND Frequency 121.9 MHZ
Type TWR Name TWR Frequency 119.5 MHZ
Type UNIC Name UNICOM Frequency 122.95 MHZ

 AIRPORT NEAR NAVIGATION AIDS
Type NDB Name Kinte Frequency 338 KHZ



Powered by Virtual Airlines Manager [v2.6.2]

Template code change by DeluxeAir